Location: Canazei
(46.4667°N, 11.7667°E)
Time: 17:53:54
(UTC+00:00)

Cosmos 2344 - Pass Details

Date: 21 April 2021
Orbit: 1240 x 3002 km, 63.3° (Epoch: 12 May)

Event Time Altitude Azimuth Distance (km) Brightness Sun altitude
Rises 03:05:34 0° 319° (NW) 4,548 6.4 -11.7°
Reaches altitude 10° 03:08:09 10° 320° (NW) 3,704 5.9 -11.3°
Maximum altitude 03:17:29 88° 233° (SW) 1,896 4.5 -9.9°
Drops below altitude 10° 03:30:38 10° 146° (SE) 5,070 6.8 -7.9°
Sets 03:34:50 0° 146° (SE) 6,297 7.3 -7.3°
